Home   Weather   Schwyz   Past weeks

Flag for Switzerland Past Weather in Schwyz, Schwyz, Switzerland — Yesterday and Last 2 Weeks

Now
55 °F

Cool.


Feels Like: 55 °F
Forecast: 39 / 47 °F
Wind: 3 mph from Northwest

Location: Altdorf

Current Time: Apr 25, 2017 at 5:24:43 am

Latest Report: Apr 25, 2017 at 4:00 am


Visibility: N/A

Pressure: 29.79 "Hg (28.01 "Hg at 515m altitude)

Humidity: 55%

Dew Point: 39 °F

Location of SchwyzLocation

Past Weather in Schwyz — Graph

°F

Schwyz Temperature Yesterday

Maximum temperature yesterday: 63 °F (at 7:00 pm)
Minimum temperature yesterday: 36 °F (at 7:00 am)
Average temperature yesterday: 50 °F

High & Low Weather Summary for the Past Weeks

 TemperatureHumidityPressure
High73 °F (Apr 10, 3:00 pm)97% (Apr 15, 10:00 pm)30.57 "Hg (Apr 15, 10:00 pm)
Low27 °F (Apr 21, 7:00 am)29% (Apr 21, 3:00 pm)29.78 "Hg (Apr 25, 3:00 am)
Average48 °F70%30.18 "Hg
* Reported Apr 10 3:00 am — Apr 25 3:00 am, Schwyz, Weather by CustomWeather, © 2017

Note: Actual official high and low records may vary slightly from our data, if they occured in-between our weather recording intervals... More about our weather records

Advertising

Schwyz Weather History for the Previous 24 Hours

Scroll right to see more
 ConditionsComfort  
Time TempWeatherWind HumidityBarometerVisibility
3:00 am
Tue, Apr 25
60 °FRefreshingly cool.13 mph43%29.78 "HgN/A
2:00 am59 °FRefreshingly cool.16 mph44%29.79 "HgN/A
1:00 am58 °FRefreshingly cool.17 mph48%29.81 "HgN/A
12:00 am59 °FRefreshingly cool.12 mph45%29.83 "HgN/A
11:00 pm
Mon, Apr 24
60 °FRefreshingly cool.15 mph43%29.84 "HgN/A
10:00 pm59 °FRefreshingly cool.10 mph47%29.86 "HgN/A
9:00 pm59 °FRefreshingly cool.10 mph47%29.86 "HgN/A
8:00 pm61 °FPartly sunny.10 mph45%29.85 "Hg19 mi
7:00 pm63 °FMild.2 mph46%29.85 "HgN/A
6:00 pm62 °FRefreshingly cool.2 mph56%29.87 "HgN/A
5:00 pm62 °FScattered clouds.3 mph48%29.88 "Hg16 mi
4:00 pm62 °FRefreshingly cool.3 mph49%29.90 "HgN/A
3:00 pm61 °FRefreshingly cool.6 mph53%29.94 "HgN/A
2:00 pm57 °FSunny.6 mph59%29.98 "Hg19 mi
1:00 pm55 °FCool.5 mph61%30.01 "HgN/A
12:00 pm54 °FCool.3 mph63%30.04 "HgN/A
11:00 am50 °FSunny.5 mph68%30.07 "Hg19 mi
10:00 am47 °FCool.2 mph74%30.09 "HgN/A
9:00 am45 °FQuite cool.2 mph84%30.11 "HgN/A
8:00 am38 °FSunny.1 mph89%30.13 "Hg19 mi
7:00 am36 °FChilly.2 mph92%30.14 "HgN/A
6:00 am38 °FChilly.1 mph92%30.14 "HgN/A
5:00 am36 °FClear.2 mph93%30.15 "Hg12 mi
Weather by CustomWeather, © 2017

See weather overviewHow to use our weather pages